Location: Vale
(35.4830°N, 81.3830°W)
Time: 18:15:29
(UTC-04:00)

Amateur Radio Satellites - All Passes

Search period start: 01 August 2015 17:45
Search period end: 02 August 2015 17:45
Location: Vale, 35.4830°N, 81.3830°W

Satellite Date Start Highest point End Downlink Frequencies (MHz)
Time Altitude Azimuth
STARS 01 Aug 17:48:26 17:51:50 21° 290° (WNW) 17:55:08 437.465
Cosmos 2499 01 Aug 17:52:41 17:56:23 14° 61° (ENE) 18:00:49 435.465 / 435.565
CUTE-I 01 Aug 18:17:50 18:22:35 34° 70° (ENE) 18:27:25 437.470
GONETS M04 01 Aug 18:21:54 18:30:40 88° 264° (W) 18:39:26
VERMONT LUNAR 01 Aug 18:49:01 18:52:11 81° 157° (SSE) 18:55:23 437.305
Cubesat XI-IV 01 Aug 19:01:17 19:06:39 90° 143° (SE) 19:12:04 437.490
MOZHAYETS 4 01 Aug 19:11:05 19:13:51 15° 292° (WNW) 19:16:24
PHONESAT 2.4 01 Aug 19:11:30 19:13:46 17° 144° (SE) 19:16:07 2401.200-2431.200
SO-50 01 Aug 19:13:22 19:18:20 84° 59° (ENE) 19:23:09 436.795
PCSat 01 Aug 19:25:15 19:30:42 90° 277° (W) 19:36:08 145.827
CUBESAT XI-V 01 Aug 19:27:45 19:32:20 66° 100° (E) 19:36:54 437.345
Cosmos 2499 01 Aug 19:42:24 19:51:14 77° 82° (E) 20:00:06 435.465 / 435.565
BRITE-PL 01 Aug 19:48:35 19:52:18 28° 73° (ENE) 19:55:58 437.365/2234.400
GOMX 1 01 Aug 19:57:33 20:00:30 19° 71° (ENE) 20:03:31 467.674
CUTE-I 01 Aug 19:58:14 20:02:43 26° 265° (W) 20:07:06 437.470
CUTE 1.7 + AOD 2 01 Aug 20:04:18 20:04:52 10° 67° (ENE) 20:05:43 437.475
HO-68 01 Aug 20:05:06 20:10:48 28° 64° (ENE) 20:16:42 435.675
STRAND 1 01 Aug 20:09:34 20:14:31 49° 99° (E) 20:19:26 437.568
CANX-2 01 Aug 20:10:59 20:13:15 15° 68° (ENE) 20:15:42 2200.000
PRISM 01 Aug 20:20:09 20:24:10 52° 100° (E) 20:28:08 437.425
GONETS M04 01 Aug 20:22:01 20:26:28 14° 279° (W) 20:30:15
VERMONT LUNAR 01 Aug 20:26:09 20:29:06 34° 352° (N) 20:32:04 437.305
ISS 01 Aug 20:31:58 20:34:40 25° 131° (SE) 20:37:25 145.825
PHONESAT 2.4 01 Aug 20:47:55 20:51:26 88° 160° (SSE) 20:54:58 2401.200-2431.200
RS-15 01 Aug 20:57:37 21:06:54 36° 107° (ESE) 21:16:42 29.354- 29.394
CUBESAT XI-V 01 Aug 21:08:03 21:09:17 11° 294° (WNW) 21:10:14 437.345
COMPASS 1 01 Aug 21:16:24 21:20:25 46° 75° (ENE) 21:24:30 437.405
DOVE 4 01 Aug 21:19:43 21:23:53 75° 259° (W) 21:28:02 437.250
CINEMA 3 01 Aug 21:24:50 21:28:47 47° 74° (ENE) 21:32:51 145.822/145.860
BRITE-PL 01 Aug 21:27:33 21:30:54 20° 266° (W) 21:34:00 437.365/2234.400
SEEDS 01 Aug 21:32:12 21:36:26 85° 258° (WSW) 21:40:43 437.485
FUNcube-1 01 Aug 21:32:49 21:35:03 15° 68° (ENE) 21:37:30 145.935
GOMX 1 01 Aug 21:34:49 21:38:31 28° 264° (W) 21:42:06 467.674
UWE-3 01 Aug 21:35:38 21:38:47 21° 70° (ENE) 21:42:05 435.000/436.395/437.385
CUTE 1.7 + AOD 2 01 Aug 21:36:06 21:40:19 60° 260° (W) 21:44:34 437.475
Cosmos 2499 01 Aug 21:37:29 21:43:38 20° 277° (W) 21:49:19 435.465 / 435.565
DELFI C3 01 Aug 21:40:13 21:43:08 20° 71° (ENE) 21:46:10 145.870
Oscar 11 01 Aug 21:42:49 21:46:42 34° 73° (ENE) 21:50:40 145.826/435.025
CANX-2 01 Aug 21:44:48 21:48:51 41° 262° (W) 21:52:55 2200.000
STRAND 1 01 Aug 21:50:00 21:53:22 17° 294° (WNW) 21:56:31 437.568
HO-68 01 Aug 21:51:18 21:58:13 51° 260° (W) 22:05:09 435.675
CUBEBUG 2 01 Aug 21:51:37 21:55:32 43° 74° (ENE) 21:59:35 437.445
AAUSAT CUBESAT 2 01 Aug 21:57:09 22:01:19 65° 260° (W) 22:05:30 437.432
PRISM 01 Aug 21:57:58 21:59:11 11° 293° (WNW) 22:00:10 437.425
VERMONT LUNAR 01 Aug 22:03:14 22:06:14 36° 9° (N) 22:09:12 437.305
ISS 01 Aug 22:08:13 22:11:03 26° 326° (NNW) 22:13:52 145.825
DX 1 01 Aug 22:15:19 22:17:22 14° 67° (ENE) 22:19:38 434.975-435.025
PHONESAT 2.4 01 Aug 22:26:20 22:29:37 36° 354° (N) 22:32:55 2401.200-2431.200
Cosmos 2491 01 Aug 22:30:28 22:34:19 14° 61° (ENE) 22:38:51 435.465 / 435.565
VELOX 1 01 Aug 22:32:38 22:34:12 12° 67° (ENE) 22:36:01 145.980
ZACube-1 01 Aug 22:45:26 22:49:36 72° 259° (W) 22:53:52 437.345
ESTCUBE 1 01 Aug 22:46:44 22:48:28 12° 67° (ENE) 22:50:27 437.505/2401.250
M-CUBED/EXP-1 PRIME 01 Aug 22:46:44 22:51:21 46° 103° (ESE) 22:55:48 437.505
COMPASS 1 01 Aug 22:54:40 22:56:24 12° 270° (W) 22:57:54 437.405
50 SAT 01 Aug 23:03:35 23:06:55 29° 73° (ENE) 23:10:21 437.505
CINEMA 3 01 Aug 23:05:19 23:06:24 11° 271° (W) 23:07:11 145.822/145.860
TIGRISAT 01 Aug 23:05:50 23:09:12 20° 93° (E) 23:12:44 435.000
FUNcube-1 01 Aug 23:07:08 23:11:03 39° 262° (W) 23:15:03 145.935
ANTELSAT 01 Aug 23:07:46 23:11:21 22° 94° (E) 23:15:03 437.575/2403.000
RS-15 01 Aug 23:08:07 23:18:50 58° 307° (NW) 23:29:52 29.354- 29.394
UWE-3 01 Aug 23:11:41 23:15:13 26° 265° (W) 23:18:45 435.000/436.395/437.385
DELFI C3 01 Aug 23:14:36 23:18:03 26° 264° (W) 23:21:29 145.870
AUBIESAT-1 01 Aug 23:15:22 23:20:08 82° 106° (ESE) 23:24:41 437.475
UKube-1 01 Aug 23:19:42 23:23:59 70° 75° (ENE) 23:28:18 .
Oscar 11 01 Aug 23:20:05 23:23:01 17° 268° (W) 23:25:49 145.826/435.025
HUMSAT D 01 Aug 23:26:38 23:30:42 58° 260° (W) 23:34:51 437.325/437.525
AISAT 01 Aug 23:27:14 23:31:31 53° 74° (ENE) 23:35:49 437.250
CUBEBUG 2 01 Aug 23:30:40 23:32:34 12° 270° (W) 23:34:14 437.445
BEESAT 2 01 Aug 23:34:04 23:37:43 33° 114° (ESE) 23:41:27 435.950
CUBEBUG 1 01 Aug 23:39:27 23:43:28 38° 73° (ENE) 23:47:31 437.445
VERMONT LUNAR 01 Aug 23:39:56 23:43:05 66° 205° (SSW) 23:46:12 437.305
POLYITAN 1 01 Aug 23:46:31 23:49:39 20° 94° (E) 23:52:55 437.675
DX 1 01 Aug 23:49:04 23:53:15 46° 260° (W) 23:57:27 434.975-435.025
AIST 1 01 Aug 23:50:58 23:55:11 60° 81° (E) 23:59:23
UNISAT 6 01 Aug 23:58:22 00:03:05 82° 102° (ESE) 00:07:49 437.425
POPSAT HIP 1 02 Aug 00:02:48 00:06:33 30° 97° (E) 00:10:22 437.405
BUGSAT 1 02 Aug 00:03:47 00:06:31 18° 94° (E) 00:09:25 437.445
PHONESAT 2.4 02 Aug 00:04:39 00:08:01 42° 11° (N) 00:11:21 2401.200-2431.200
VELOX 1 02 Aug 00:06:01 00:10:21 55° 260° (W) 00:14:40 145.980
QB50P2 02 Aug 00:10:28 00:14:28 39° 98° (E) 00:18:30 145.880/145.840
BEESAT 3 02 Aug 00:12:29 00:16:30 62° 301° (WNW) 00:20:33 437.485
SPROUT 02 Aug 00:13:10 00:16:38 25° 71° (ENE) 00:20:11 437.525
ESTCUBE 1 02 Aug 00:20:27 00:24:54 56° 260° (W) 00:29:23 437.505/2401.250
M-CUBED/EXP-1 PRIME 02 Aug 00:22:26 00:25:44 18° 297° (WNW) 00:28:50 437.505
TISAT 1 02 Aug 00:22:34 00:25:31 19° 70° (ENE) 00:28:34 437.305
Cosmos 2491 02 Aug 00:24:04 00:32:50 83° 83° (E) 00:41:34 435.465 / 435.565
DUCHIFAT 1 02 Aug 00:33:59 00:38:14 72° 101° (E) 00:42:29 145.980
QB50P1 02 Aug 00:37:50 00:42:06 85° 99° (E) 00:46:23 145.935-145.965
NANOSAT C BR1 02 Aug 00:38:45 00:43:01 85° 100° (E) 00:47:17 145.865
50 SAT 02 Aug 00:39:02 00:41:34 16° 267° (W) 00:43:58 437.505
YUBILEINY 02 Aug 00:41:05 00:49:22 53° 91° (E) 00:57:49 435.215
TIGRISAT 02 Aug 00:41:46 00:46:03 35° 287° (WNW) 00:50:17 435.000
ANTELSAT 02 Aug 00:43:58 00:48:10 32° 288° (WNW) 00:52:19 437.575/2403.000
AUBIESAT-1 02 Aug 00:53:06 00:54:10 10° 301° (WNW) 00:54:56 437.475
O/OREOS (USA 219) 02 Aug 01:02:47 01:05:27 16° 101° (ESE) 01:08:21 437.305
AISAT 02 Aug 01:06:59 01:08:29 11° 270° (W) 01:09:40 437.250
AIST 2 02 Aug 01:11:24 01:15:38 89° 124° (ESE) 01:19:55 435.215
BEESAT 2 02 Aug 01:12:46 01:15:52 20° 310° (NW) 01:18:53 435.950
CUBEBUG 1 02 Aug 01:17:20 01:20:01 15° 268° (W) 01:22:31 437.445
VERMONT LUNAR 02 Aug 01:18:55 01:19:25 10° 218° (SW) 01:19:47 437.305
BEESAT 02 Aug 01:20:44 01:23:29 16° 67° (ENE) 01:26:27 436.000
POLYITAN 1 02 Aug 01:21:51 01:25:35 28° 288° (WNW) 01:29:14 437.675
RS-15 02 Aug 01:27:20 01:34:38 18° 336° (NNW) 01:41:44 29.354- 29.394
BUGSAT 1 02 Aug 01:38:29 01:42:02 29° 288° (WNW) 01:45:35 437.445
POPSAT HIP 1 02 Aug 01:39:09 01:42:14 19° 290° (WNW) 01:45:13 437.405
SWISSCUBE 02 Aug 01:40:02 01:44:02 28° 70° (ENE) 01:48:07 437.505
PHONESAT 2.4 02 Aug 01:42:37 01:46:04 59° 207° (SSW) 01:49:30 2401.200-2431.200
QB50P2 02 Aug 01:47:30 01:50:04 15° 292° (WNW) 01:52:28 145.880/145.840
SPROUT 02 Aug 01:49:16 01:52:41 22° 266° (W) 01:56:00 437.525
Cosmos 2504 02 Aug 01:55:52 01:58:41 13° 80° (E) 02:02:08 435.465 / 435.565
TISAT 1 02 Aug 01:57:27 02:01:07 28° 264° (W) 02:04:43 437.305
ITUPSAT 1 02 Aug 02:00:53 02:05:21 41° 73° (ENE) 02:09:54 437.325
Oscar 19 02 Aug 02:01:26 02:05:27 23° 94° (E) 02:09:36 437.125/150
Cosmos 2491 02 Aug 02:23:31 02:28:46 17° 278° (W) 02:33:27 435.465 / 435.565
YUBILEINY 02 Aug 02:39:12 02:46:39 30° 290° (WNW) 02:53:54 435.215
O/OREOS (USA 219) 02 Aug 02:40:26 02:44:36 37° 295° (WNW) 02:48:47 437.305
BEESAT 02 Aug 02:56:20 03:00:59 48° 261° (W) 03:05:37 436.000
ISS 02 Aug 03:02:33 03:04:05 13° 25° (NNE) 03:05:41 145.825
STARS 02 Aug 03:06:28 03:09:25 19° 69° (ENE) 03:12:31 437.465
Gurwin Techsat 1B 02 Aug 03:06:59 03:11:33 30° 95° (E) 03:16:11 435.225
SWISSCUBE 02 Aug 03:17:47 03:21:51 26° 265° (W) 03:25:50 437.505
JAS-2 02 Aug 03:22:54 03:28:35 22° 89° (E) 03:34:27 435.910
ITAMSAT 1 02 Aug 03:23:50 03:28:36 37° 98° (E) 03:33:23 435.822/435.867
KKS-1 02 Aug 03:33:58 03:38:21 67° 76° (ENE) 03:42:45 437.445
ITUPSAT 1 02 Aug 03:40:09 03:43:27 18° 268° (W) 03:46:35 437.325
Oscar 19 02 Aug 03:40:11 03:44:55 36° 289° (WNW) 03:49:35 437.125/150
Cosmos 2504 02 Aug 03:42:47 03:49:52 84° 276° (W) 03:57:29 435.465 / 435.565
RS-15 02 Aug 03:48:17 03:53:43 14° 12° (NNE) 03:59:33 29.354- 29.394
JUGNU 02 Aug 04:19:19 04:22:46 16° 174° (S) 04:26:14 437.505
MOZHAYETS 4 02 Aug 04:31:36 04:35:38 31° 72° (ENE) 04:39:45
HORYU 2 02 Aug 04:35:07 04:38:43 24° 95° (E) 04:42:25 437.375
ISS 02 Aug 04:37:41 04:40:56 89° 242° (WSW) 04:44:12 145.825
STARS 02 Aug 04:41:41 04:45:39 33° 263° (W) 04:49:36 437.465
DANDE 02 Aug 04:43:41 04:46:37 27° 98° (E) 04:49:08 436.750
Gurwin Techsat 1B 02 Aug 04:46:54 04:51:29 30° 290° (WNW) 04:55:59 435.225
CUSAT 1 02 Aug 04:56:48 04:59:49 87° 287° (WNW) 05:02:27 437.405
ITAMSAT 1 02 Aug 05:03:51 05:07:55 23° 292° (WNW) 05:11:49 435.822/435.867
AO-7 02 Aug 05:05:32 05:13:38 54° 102° (ESE) 05:21:43 29.400- 29.500
JAS-2 02 Aug 05:06:24 05:14:13 69° 287° (WNW) 05:21:48 435.910
GONETS M04 02 Aug 05:25:34 05:31:18 21° 83° (E) 05:37:29
Cosmos 2504 02 Aug 05:40:48 05:43:38 12° 299° (WNW) 05:45:56 435.465 / 435.565
RS-15 02 Aug 06:00:35 06:11:07 38° 44° (NE) 06:22:14 29.354- 29.394
JUGNU 02 Aug 06:07:25 06:11:04 17° 184° (S) 06:14:41 437.505
MOZHAYETS 4 02 Aug 06:09:16 06:12:54 22° 267° (W) 06:16:26
HORYU 2 02 Aug 06:11:30 06:15:19 27° 290° (WNW) 06:19:04 437.375
SRMSAT 02 Aug 06:13:00 06:16:26 16° 174° (S) 06:19:54 437.500
CUBESAT XI-V 02 Aug 06:28:00 06:32:27 45° 74° (ENE) 06:36:55 437.345
CUTE-I 02 Aug 06:38:56 06:42:10 17° 91° (E) 06:45:38 437.470
JAS-2 02 Aug 06:54:43 06:58:03 13° 302° (WNW) 07:00:51 435.910
AO-7 02 Aug 06:58:58 07:06:06 32° 298° (WNW) 07:12:59 29.400- 29.500
PRISM 02 Aug 07:07:29 07:10:56 26° 71° (ENE) 07:14:26 437.425
GONETS M04 02 Aug 07:18:44 07:27:26 70° 279° (W) 07:36:07
Cubesat XI-IV 02 Aug 07:21:53 07:26:58 46° 99° (E) 07:32:04 437.490
STRAND 1 02 Aug 07:22:21 07:27:19 52° 74° (ENE) 07:32:20 437.568
BRITE-PL 02 Aug 07:57:10 07:58:31 11° 91° (E) 08:00:12 437.365/2234.400
JUGNU 02 Aug 07:57:38 07:59:21 11° 193° (SSW) 08:00:56 437.505
SRMSAT 02 Aug 08:01:17 08:04:53 16° 184° (S) 08:08:28 437.500
CUBESAT XI-V 02 Aug 08:07:20 08:10:09 15° 269° (W) 08:12:44 437.345
RS-15 02 Aug 08:12:43 08:24:28 67° 246° (WSW) 08:36:30 29.354- 29.394
Cosmos 2499 02 Aug 08:15:19 08:22:31 65° 93° (E) 08:30:21 435.465 / 435.565
CUTE-I 02 Aug 08:17:27 08:22:36 51° 287° (WNW) 08:27:42 437.470
PCSat 02 Aug 08:22:39 08:26:04 18° 106° (ESE) 08:29:43 145.827
BEESAT 3 02 Aug 08:34:00 08:37:31 29° 53° (NE) 08:41:02 437.485
PRISM 02 Aug 08:43:04 08:46:20 21° 265° (W) 08:49:31 437.425
Cubesat XI-IV 02 Aug 09:02:57 09:06:46 20° 293° (WNW) 09:10:25 437.490
STRAND 1 02 Aug 09:03:47 09:06:54 15° 269° (W) 09:09:46 437.568
SEEDS 02 Aug 09:20:24 09:23:27 20° 93° (E) 09:26:37 437.485
DOVE 4 02 Aug 09:20:54 09:25:13 36° 97° (E) 09:29:50 437.250
HO-68 02 Aug 09:22:18 09:28:48 37° 97° (E) 09:35:24 435.675
CINEMA 3 02 Aug 09:23:03 09:26:00 17° 92° (E) 09:29:15 145.822/145.860
GONETS M04 02 Aug 09:23:46 09:26:17 11° 301° (WNW) 09:27:59
SO-50 02 Aug 09:24:33 09:29:08 56° 116° (ESE) 09:33:55 436.795
CUTE 1.7 + AOD 2 02 Aug 09:24:40 09:28:21 28° 95° (E) 09:32:04 437.475
M-CUBED/EXP-1 PRIME 02 Aug 09:31:57 09:35:34 33° 67° (ENE) 09:39:31 437.505
CANX-2 02 Aug 09:32:58 09:37:01 40° 98° (E) 09:41:03 2200.000
BRITE-PL 02 Aug 09:32:59 09:37:22 56° 284° (WNW) 09:42:04 437.365/2234.400
BEESAT 2 02 Aug 09:33:15 09:37:19 78° 242° (WSW) 09:41:18 435.950
AIST 2 02 Aug 09:36:29 09:39:51 23° 51° (NE) 09:43:13 435.215
GOMX 1 02 Aug 09:37:45 09:42:23 87° 276° (W) 09:47:20 467.674
AAUSAT CUBESAT 2 02 Aug 09:43:36 09:46:58 24° 95° (E) 09:50:23 437.432
CUBEBUG 2 02 Aug 09:46:57 09:49:01 13° 90° (E) 09:51:23 437.445
SRMSAT 02 Aug 09:51:52 09:53:19 11° 193° (SSW) 09:54:39 437.500
AUBIESAT-1 02 Aug 09:59:45 10:03:43 61° 70° (ENE) 10:08:01 437.475
TIGRISAT 02 Aug 10:03:38 10:05:06 12° 66° (ENE) 10:06:50 435.000
PCSat 02 Aug 10:03:50 10:09:06 52° 300° (WNW) 10:14:24 145.827
ANTELSAT 02 Aug 10:05:27 10:07:24 13° 67° (ENE) 10:09:36 437.575/2403.000
Cosmos 2499 02 Aug 10:11:03 10:16:33 21° 294° (WNW) 10:21:58 435.465 / 435.565
BEESAT 3 02 Aug 10:12:17 10:15:18 20° 249° (WSW) 10:18:10 437.485
RS-15 02 Aug 10:31:30 10:35:24 11° 260° (W) 10:37:51 29.354- 29.394
ZACube-1 02 Aug 10:37:07 10:41:02 28° 96° (E) 10:45:01 437.345
COMPASS 1 02 Aug 10:38:05 10:42:16 58° 284° (WNW) 10:46:22 437.405
POLYITAN 1 02 Aug 10:38:54 10:39:50 11° 67° (ENE) 10:41:00 437.675
POPSAT HIP 1 02 Aug 10:53:46 10:56:17 16° 69° (ENE) 10:58:58 437.405
UNISAT 6 02 Aug 10:54:26 10:58:34 47° 74° (ENE) 11:02:52 437.425
SEEDS 02 Aug 10:55:34 10:59:17 28° 288° (WNW) 11:02:53 437.485
DELFI C3 02 Aug 10:55:52 10:59:48 48° 99° (E) 11:03:43 145.870
YUBILEINY 02 Aug 10:55:57 11:02:13 22° 67° (ENE) 11:08:54 435.215
FUNcube-1 02 Aug 10:57:53 11:02:16 47° 98° (E) 11:06:42 145.935
CINEMA 3 02 Aug 10:58:52 11:03:23 44° 286° (WNW) 11:08:01 145.822/145.860
DOVE 4 02 Aug 10:59:18 11:02:49 21° 289° (WNW) 11:06:19 437.250
CUTE 1.7 + AOD 2 02 Aug 11:00:51 11:04:07 21° 290° (WNW) 11:07:15 437.475
QB50P2 02 Aug 11:01:09 11:04:14 21° 70° (ENE) 11:07:25 145.880/145.840
UWE-3 02 Aug 11:03:14 11:07:52 75° 101° (ESE) 11:12:33 435.000/436.395/437.385
SO-50 02 Aug 11:06:48 11:10:06 18° 314° (NW) 11:13:19 436.795
M-CUBED/EXP-1 PRIME 02 Aug 11:07:47 11:10:31 17° 264° (W) 11:13:16 437.505
Oscar 11 02 Aug 11:08:38 11:13:00 76° 284° (WNW) 11:17:20 145.826/435.025
HO-68 02 Aug 11:09:59 11:16:31 38° 293° (WNW) 11:22:56 435.675
CANX-2 02 Aug 11:10:04 11:12:38 15° 291° (WNW) 11:15:00 2200.000
UKube-1 02 Aug 11:11:40 11:13:57 14° 92° (E) 11:16:25 .
HUMSAT D 02 Aug 11:13:49 11:17:30 27° 96° (E) 11:21:14 437.325/437.525
O/OREOS (USA 219) 02 Aug 11:14:32 11:17:57 21° 60° (ENE) 11:21:29 437.305
AIST 2 02 Aug 11:14:49 11:18:23 27° 248° (WSW) 11:21:50 435.215
AAUSAT CUBESAT 2 02 Aug 11:19:06 11:22:29 23° 289° (WNW) 11:25:44 437.432
CUBEBUG 2 02 Aug 11:21:29 11:26:02 53° 285° (WNW) 11:30:39 437.445
AISAT 02 Aug 11:22:39 11:24:32 13° 91° (E) 11:26:40 437.250
DUCHIFAT 1 02 Aug 11:23:29 11:27:14 34° 73° (ENE) 11:31:04 145.980
QB50P1 02 Aug 11:27:35 11:31:30 40° 74° (ENE) 11:35:28 145.935-145.965
NANOSAT C BR1 02 Aug 11:28:17 11:32:11 40° 74° (ENE) 11:36:09 145.865
Cosmos 2491 02 Aug 11:28:32 11:33:39 18° 82° (E) 11:39:20 435.465 / 435.565
TIGRISAT 02 Aug 11:37:10 11:41:24 54° 260° (W) 11:45:45 435.000
ANTELSAT 02 Aug 11:39:34 11:43:47 49° 261° (W) 11:48:05 437.575/2403.000
DX 1 02 Aug 11:40:22 11:44:21 35° 98° (E) 11:48:21 434.975-435.025
VELOX 1 02 Aug 11:59:34 12:03:33 33° 97° (E) 12:07:34 145.980
POLYITAN 1 02 Aug 12:11:11 12:15:18 55° 260° (W) 12:19:26 437.675
ZACube-1 02 Aug 12:13:33 12:17:16 24° 289° (WNW) 12:20:53 437.345
50 SAT 02 Aug 12:15:36 12:19:34 69° 101° (E) 12:23:31 437.505
ESTCUBE 1 02 Aug 12:16:17 12:20:26 36° 98° (E) 12:24:34 437.505/2401.250
AIST 1 02 Aug 12:17:09 12:21:13 41° 93° (E) 12:25:19
BUGSAT 1 02 Aug 12:24:53 12:28:55 64° 259° (W) 12:32:55 437.445
POPSAT HIP 1 02 Aug 12:28:03 12:31:54 35° 262° (W) 12:35:45 437.405
DELFI C3 02 Aug 12:33:05 12:34:28 11° 292° (WNW) 12:35:39 145.870
UNISAT 6 02 Aug 12:33:46 12:35:44 12° 270° (W) 12:37:27 437.425
FUNcube-1 02 Aug 12:35:35 12:38:15 15° 292° (WNW) 12:40:43 145.935
QB50P2 02 Aug 12:36:22 12:39:59 27° 264° (W) 12:43:33 145.880/145.840
UKube-1 02 Aug 12:46:14 12:50:18 40° 287° (WNW) 12:54:19 .
HUMSAT D 02 Aug 12:49:43 12:53:06 22° 289° (WNW) 12:56:22 437.325/437.525
YUBILEINY 02 Aug 12:51:12 12:59:59 71° 267° (W) 13:08:43 435.215
O/OREOS (USA 219) 02 Aug 12:53:21 12:57:29 33° 256° (WSW) 13:01:33 437.305
AISAT 02 Aug 12:57:10 13:01:25 47° 286° (WNW) 13:05:39 437.250
DUCHIFAT 1 02 Aug 13:00:34 13:03:12 16° 268° (W) 13:05:39 145.980
QB50P1 02 Aug 13:05:26 13:07:36 13° 269° (W) 13:09:33 145.935-145.965
NANOSAT C BR1 02 Aug 13:06:06 13:08:16 13° 269° (W) 13:10:12 145.865
CUBEBUG 1 02 Aug 13:07:02 13:11:20 67° 284° (WNW) 13:15:37 437.445
Oscar 19 02 Aug 13:15:33 13:19:37 25° 69° (ENE) 13:23:49 437.125/150
DX 1 02 Aug 13:17:26 13:20:21 17° 292° (WNW) 13:23:07 434.975-435.025
Cosmos 2491 02 Aug 13:20:53 13:29:41 79° 278° (W) 13:38:28 435.465 / 435.565
Cosmos 2504 02 Aug 13:32:28 13:39:22 28° 71° (ENE) 13:46:37 435.465 / 435.565
VELOX 1 02 Aug 13:36:45 13:39:53 19° 291° (WNW) 13:42:53 145.980
SPROUT 02 Aug 13:37:41 13:42:00 77° 101° (E) 13:46:19 437.525
TISAT 1 02 Aug 13:44:08 13:48:15 52° 100° (E) 13:52:23 437.305
ESTCUBE 1 02 Aug 13:53:58 13:57:02 18° 291° (WNW) 13:59:57 437.505/2401.250
AIST 1 02 Aug 13:56:51 13:59:08 13° 289° (WNW) 14:01:12
ITUPSAT 1 02 Aug 14:06:15 14:08:23 13° 90° (E) 14:10:46 437.325
AO-7 02 Aug 14:16:59 14:17:44 10° 50° (NE) 14:19:06 29.400- 29.500
Gurwin Techsat 1B 02 Aug 14:25:05 14:29:50 35° 71° (ENE) 14:34:40 435.225
ITAMSAT 1 02 Aug 14:38:46 14:43:39 43° 72° (ENE) 14:48:34 435.822/435.867
Oscar 19 02 Aug 14:54:15 14:58:51 33° 263° (W) 15:03:25 437.125/150
BEESAT 02 Aug 14:59:27 15:04:08 54° 100° (E) 15:08:47 436.000
JAS-2 02 Aug 15:15:15 15:20:49 40° 69° (ENE) 15:27:08 435.910
SWISSCUBE 02 Aug 15:20:10 15:24:58 82° 285° (WNW) 15:29:43 437.505
TISAT 1 02 Aug 15:22:04 15:23:37 12° 293° (WNW) 15:24:56 437.305
DANDE 02 Aug 15:23:14 15:26:28 22° 79° (ENE) 15:30:33 436.750
Cosmos 2504 02 Aug 15:23:46 15:32:03 58° 268° (W) 15:40:24 435.465 / 435.565
Cosmos 2491 02 Aug 15:24:12 15:28:18 13° 299° (WNW) 15:31:41 435.465 / 435.565
KKS-1 02 Aug 15:29:15 15:32:00 16° 92° (E) 15:34:57 437.445
HORYU 2 02 Aug 15:31:24 15:34:02 16° 68° (ENE) 15:36:53 437.375
CUSAT 1 02 Aug 15:32:04 15:36:27 47° 80° (E) 15:42:15 437.405
ITUPSAT 1 02 Aug 15:42:00 15:46:40 53° 286° (WNW) 15:51:17 437.325
AO-7 02 Aug 16:00:54 16:08:58 56° 68° (ENE) 16:17:07 29.400- 29.500
Gurwin Techsat 1B 02 Aug 16:05:33 16:09:54 25° 266° (W) 16:14:08 435.225
ITAMSAT 1 02 Aug 16:19:32 16:23:22 20° 267° (W) 16:27:01 435.822/435.867
STARS 02 Aug 16:33:47 16:38:07 54° 100° (E) 16:42:28 437.465
BEESAT 02 Aug 16:38:57 16:41:34 14° 294° (WNW) 16:43:56 436.000
JAS-2 02 Aug 17:00:52 17:06:04 29° 268° (W) 17:11:43 435.910
KKS-1 02 Aug 17:04:40 17:08:49 38° 287° (WNW) 17:12:55 437.445
DANDE 02 Aug 17:05:49 17:09:29 27° 263° (W) 17:14:01 436.750
HORYU 2 02 Aug 17:06:11 17:10:23 40° 262° (W) 17:14:35 437.375
CUSAT 1 02 Aug 17:15:57 17:19:02 16° 265° (W) 17:22:17 437.405
